TimeMST,TemperatureF,Dew PointF,Humidity,Sea Level PressureIn,VisibilityMPH,Wind Direction,Wind SpeedMPH,Gust SpeedMPH,PrecipitationIn,Events,Conditions,WindDirDegrees,DateUTC
12:15 AM,30.2,28.4,93,29.98,10.0,Calm,Calm,-,N/A,,Overcast,0,2014-01-08 07:15:00
12:35 AM,28.4,28.4,100,29.98,10.0,Calm,Calm,-,N/A,,Overcast,0,2014-01-08 07:35:00
12:55 AM,30.2,28.4,93,29.99,10.0,Calm,Calm,-,N/A,,Overcast,0,2014-01-08 07:55:00
1:15 AM,30.2,28.4,93,29.99,10.0,Calm,Calm,-,N/A,,Overcast,0,2014-01-08 08:15:00
1:35 AM,30.2,26.6,86,30.00,10.0,Calm,Calm,-,N/A,,Overcast,0,2014-01-08 08:35:00
1:55 AM,32.0,26.6,80,30.01,10.0,WNW,10.4,-,N/A,,Overcast,300,2014-01-08 08:55:00
2:15 AM,32.0,28.4,87,30.01,10.0,WNW,10.4,-,N/A,,Overcast,290,2014-01-08 09:15:00
2:35 AM,32.0,26.6,80,30.01,10.0,WNW,10.4,-,N/A,,Overcast,300,2014-01-08 09:35:00
2:55 AM,32.0,26.6,80,30.01,10.0,WNW,9.2,-,N/A,,Overcast,300,2014-01-08 09:55:00
3:15 AM,30.2,26.6,86,30.01,10.0,NW,5.8,-,N/A,,Overcast,320,2014-01-08 10:15:00
3:35 AM,30.2,26.6,86,30.01,10.0,NW,8.1,-,N/A,,Overcast,310,2014-01-08 10:35:00
3:55 AM,32.0,24.8,75,30.01,10.0,NW,8.1,-,N/A,,Overcast,320,2014-01-08 10:55:00
4:15 AM,30.2,24.8,80,30.01,10.0,NNW,9.2,-,N/A,,Mostly Cloudy,330,2014-01-08 11:15:00
4:35 AM,30.2,24.8,80,30.01,10.0,NNW,6.9,-,N/A,,Mostly Cloudy,330,2014-01-08 11:35:00
4:55 AM,30.2,24.8,80,30.01,10.0,NW,9.2,-,N/A,,Overcast,320,2014-01-08 11:55:00
5:15 AM,30.2,26.6,86,30.01,10.0,NNW,8.1,-,N/A,,Overcast,340,2014-01-08 12:15:00
5:35 AM,30.2,26.6,86,30.01,10.0,NW,6.9,-,N/A,,Overcast,320,2014-01-08 12:35:00
5:55 AM,28.4,24.8,86,30.01,10.0,South,5.8,-,N/A,,Overcast,190,2014-01-08 12:55:00
6:15 AM,28.4,24.8,86,30.02,10.0,South,5.8,-,N/A,,Overcast,180,2014-01-08 13:15:00
6:35 AM,26.6,23.0,86,30.02,10.0,South,5.8,-,N/A,,Overcast,190,2014-01-08 13:35:00
6:55 AM,26.6,23.0,86,30.02,10.0,SW,3.5,-,N/A,,Mostly Cloudy,220,2014-01-08 13:55:00
7:15 AM,23.0,21.2,93,30.03,10.0,South,3.5,-,N/A,,Clear,190,2014-01-08 14:15:00
7:35 AM,23.0,19.4,86,30.03,10.0,SW,4.6,-,N/A,,Clear,220,2014-01-08 14:35:00
7:55 AM,21.2,17.6,86,30.03,10.0,South,5.8,-,N/A,,Clear,180,2014-01-08 14:55:00
8:15 AM,23.0,19.4,86,30.05,10.0,South,4.6,-,N/A,,Clear,190,2014-01-08 15:15:00
8:35 AM,23.0,19.4,86,30.05,10.0,SSW,3.5,-,N/A,,Clear,210,2014-01-08 15:35:00
8:55 AM,26.6,21.2,80,30.06,10.0,SSW,3.5,-,N/A,,Clear,200,2014-01-08 15:55:00
9:15 AM,28.4,21.2,74,30.06,10.0,SW,3.5,-,N/A,,Clear,220,2014-01-08 16:15:00
9:35 AM,30.2,23.0,75,30.06,10.0,South,6.9,-,N/A,,Clear,170,2014-01-08 16:35:00
9:55 AM,32.0,23.0,69,30.07,10.0,South,9.2,-,N/A,,Clear,170,2014-01-08 16:55:00
10:15 AM,32.0,26.6,80,30.06,10.0,South,9.2,-,N/A,,Clear,180,2014-01-08 17:15:00
10:35 AM,33.8,26.6,75,30.05,10.0,SSW,8.1,-,N/A,,Clear,200,2014-01-08 17:35:00
10:55 AM,33.8,26.6,75,30.04,10.0,SSW,11.5,-,N/A,,Clear,200,2014-01-08 17:55:00
11:15 AM,35.6,26.6,70,30.03,10.0,SSW,12.7,-,N/A,,Clear,210,2014-01-08 18:15:00
11:35 AM,35.6,26.6,70,30.02,10.0,SSW,10.4,18.4,N/A,,Clear,200,2014-01-08 18:35:00
11:55 AM,35.6,26.6,70,30.01,10.0,SSW,12.7,-,N/A,,Clear,210,2014-01-08 18:55:00
12:15 PM,35.6,26.6,70,30.00,10.0,SSW,12.7,-,N/A,,Clear,200,2014-01-08 19:15:00
12:35 PM,35.6,26.6,70,30.00,10.0,South,11.5,-,N/A,,Clear,190,2014-01-08 19:35:00
12:55 PM,35.6,26.6,70,29.99,10.0,SSW,13.8,18.4,N/A,,Clear,210,2014-01-08 19:55:00
1:15 PM,35.6,26.6,70,29.98,10.0,South,16.1,20.7,N/A,,Clear,190,2014-01-08 20:15:00
1:35 PM,35.6,26.6,70,29.97,10.0,SSW,15.0,20.7,N/A,,Clear,200,2014-01-08 20:35:00
1:55 PM,35.6,26.6,70,29.97,10.0,SSW,16.1,20.7,N/A,,Clear,200,2014-01-08 20:55:00
2:15 PM,35.6,26.6,70,29.98,10.0,SSW,12.7,16.1,N/A,,Clear,200,2014-01-08 21:15:00
2:35 PM,33.8,26.6,75,29.98,10.0,South,10.4,-,N/A,,Clear,190,2014-01-08 21:35:00
2:55 PM,35.6,26.6,70,29.98,10.0,South,13.8,-,N/A,,Clear,190,2014-01-08 21:55:00
3:15 PM,33.8,26.6,75,29.98,10.0,South,9.2,-,N/A,,Clear,190,2014-01-08 22:15:00
3:35 PM,33.8,26.6,75,29.98,10.0,South,9.2,-,N/A,,Clear,190,2014-01-08 22:35:00
3:55 PM,32.0,26.6,80,29.98,10.0,South,8.1,-,N/A,,Clear,190,2014-01-08 22:55:00
4:15 PM,32.0,26.6,80,29.98,10.0,South,6.9,-,N/A,,Clear,190,2014-01-08 23:15:00
4:35 PM,32.0,26.6,80,29.98,10.0,South,8.1,-,N/A,,Clear,190,2014-01-08 23:35:00
4:55 PM,30.2,26.6,86,29.98,10.0,SSW,9.2,-,N/A,,Clear,200,2014-01-08 23:55:00
5:15 PM,28.4,24.8,86,29.98,10.0,South,5.8,-,N/A,,Clear,180,2014-01-09 00:15:00
5:35 PM,26.6,23.0,86,29.98,10.0,SSE,8.1,-,N/A,,Clear,160,2014-01-09 00:35:00
5:55 PM,26.6,23.0,86,29.98,10.0,South,5.8,-,N/A,,Clear,190,2014-01-09 00:55:00
6:15 PM,28.4,23.0,80,29.98,10.0,South,9.2,-,N/A,,Clear,170,2014-01-09 01:15:00
6:35 PM,26.6,23.0,86,29.98,10.0,SSW,10.4,-,N/A,,Clear,200,2014-01-09 01:35:00
6:55 PM,26.6,23.0,86,29.98,10.0,SSW,9.2,-,N/A,,Clear,200,2014-01-09 01:55:00
7:15 PM,26.6,23.0,86,29.98,10.0,SSW,11.5,-,N/A,,Clear,210,2014-01-09 02:15:00
7:35 PM,26.6,23.0,86,29.98,10.0,SSW,12.7,-,N/A,,Clear,200,2014-01-09 02:35:00
7:55 PM,26.6,23.0,86,29.98,10.0,SSW,9.2,-,N/A,,Clear,210,2014-01-09 02:55:00
8:15 PM,26.6,21.2,80,29.98,10.0,NE,4.6,-,N/A,,Clear,40,2014-01-09 03:15:00
8:35 PM,26.6,23.0,86,29.98,10.0,Calm,Calm,-,N/A,,Clear,0,2014-01-09 03:35:00
8:55 PM,21.2,19.4,93,29.98,10.0,Calm,Calm,-,N/A,,Clear,0,2014-01-09 03:55:00
9:15 PM,21.2,19.4,93,29.97,10.0,SSW,4.6,-,N/A,,Clear,210,2014-01-09 04:15:00
9:35 PM,21.2,21.2,100,29.96,10.0,SW,4.6,-,N/A,,Clear,230,2014-01-09 04:35:00
9:55 PM,21.2,19.4,93,29.97,10.0,Calm,Calm,-,N/A,,Clear,0,2014-01-09 04:55:00
10:15 PM,21.2,19.4,93,29.96,10.0,SSW,6.9,-,N/A,,Clear,210,2014-01-09 05:15:00
10:35 PM,21.2,17.6,86,29.96,10.0,Calm,Calm,-,N/A,,Clear,0,2014-01-09 05:35:00
10:55 PM,19.4,19.4,100,29.95,10.0,SW,5.8,-,N/A,,Clear,230,2014-01-09 05:55:00
11:15 PM,23.0,21.2,93,29.95,10.0,WSW,4.6,-,N/A,,Clear,240,2014-01-09 06:15:00
11:35 PM,19.4,17.6,93,29.95,10.0,West,4.6,-,N/A,,Clear,260,2014-01-09 06:35:00
11:55 PM,17.6,17.6,100,29.94,10.0,Calm,Calm,-,N/A,,Clear,0,2014-01-09 06:55:00